Regional Weather Roundup
Issued by NWS

Home | Current Version | Previous Version | Graphics & Text | Print | Product List | Glossary Off
Versions: 1 2 3 4 5 6 7 8 9 10 11 12 13 14 15 16 17 18 19 20 21 22 23 24 25 26 27 28 29 30 31 32 33 34 35 36 37 38 39 40 41 42 43 44 45 46 47 48 49 50

000
ASUS43 KOAX 272310
RWRNE

WEATHER ROUNDUP FOR NEBRASKA
NATIONAL WEATHER SERVICE OMAHA NE
600 PM CDT TUE JUN 27 2017

NOTES: SATELLITE DATA IS BEING USED TO AUGMENT CLOUD COVER ABOVE
       12000 FEET.
       "FAIR" INDICATES FEW OR NO CLOUDS BELOW 12,000 FEET WITH NO
       SIGNIFICANT WEATHER AND/OR OBSTRUCTIONS TO VISIBILITY.

  * THESE STATIONS DO NOT REPORT WEATHER SUCH AS RAIN...SNOW OR FOG.

NEZ001>004-019>022-054>056-280000-
NEBRASKA PANHANDLE

CITY           SKY/WX    TMP DP  RH WIND       PRES   REMARKS
SCOTTSBLUFF    CLOUDY    87  54  32 NE9       29.68F
ALLIANCE       CLOUDY    74  57  55 N9        29.68F
CHADRON        TSTM      65  56  72 S22G45    29.65R
GORDON         FAIR      82  56  41 SW12      29.69R
KIMBALL        CLOUDY    84  50  30 NE8       29.75F
SIDNEY         TSTM      71  55  56 E14       29.68F
$$

NEZ057>060-069>072-079>082-280000-
SOUTHWEST NEBRASKA

CITY           SKY/WX    TMP DP  RH WIND       PRES   REMARKS
NORTH PLATTE   PTSUNNY   91  66  43 SE9G17    29.67F HX  93
IMPERIAL       MOSUNNY   94  46  19 S16G22    29.66F HX  90
LEXINGTON      MOSUNNY   89  64  43 SE15G21   29.69F HX  90
MCCOOK         SUNNY     97  53  22 S24G37    29.66F HX  94
OGALLALA       PTSUNNY   91  58  32 SE15      29.65F HX  90
$$

NEZ005>010-023>029-035>040-094-280000-
NORTH CENTRAL NEBRASKA

CITY           SKY/WX    TMP DP  RH WIND       PRES   REMARKS
VALENTINE      CLOUDY    86  56  35 S24G32    29.61F
AINSWORTH      PTSUNNY   83  64  51 S23G31    29.67F
BROKEN BOW     MOSUNNY   86  65  49 S23G29    29.70F
O`NEILL        MOSUNNY   82  65  56 S25G35    29.71F
ORD            MOSUNNY   84  63  49 SE18G26   29.70F
THEDFORD       PTSUNNY   82  62  52 S17G24    29.74F
$$

NEZ041-046>049-061>064-073>077-083>087-280000-
SOUTH CENTRAL NEBRASKA

CITY           SKY/WX    TMP DP  RH WIND       PRES   REMARKS
GRAND ISLAND   SUNNY     83  68  60 S22G30    29.76F
AURORA         MOSUNNY   83  66  56 SE21G28   29.77F
HASTINGS       SUNNY     85  67  54 SE16G29   29.77F
HEBRON         MOSUNNY   84  69  59 SE15G25   29.78F
HOLDREGE       SUNNY     89  56  32 S16G24    29.71F
KEARNEY *      SUNNY     90  66  45 SE23G29   29.73F HX  92
YORK           PTSUNNY   82  66  57 SE17G25   29.79F
$$

NEZ011>018-030>034-042>045-280000-
NORTHEAST NEBRASKA

CITY           SKY/WX    TMP DP  RH WIND       PRES   REMARKS
NORFOLK        MOSUNNY   81  63  54 S26G39    29.74F
ALBION         PTSUNNY   83  64  54 S23G33    29.76F
BLAIR          MOSUNNY   79  63  58 S21G31    29.83F
FREMONT        MOSUNNY   79  64  59 SE17G30   29.82F
TEKAMAH        SUNNY     83  61  47 S20G31    29.81F
WAYNE          SUNNY     80  63  56 S23G31    29.78F
$$

NEZ050>053-065>068-078-088>093-280000-
SOUTHEAST NEBRASKA

CITY           SKY/WX    TMP DP  RH WIND       PRES   REMARKS
LINCOLN        PTSUNNY   82  67  60 S22       29.82F
OMAHA EPPLEY   PTSUNNY   81  63  54 SE25G32   29.84F
BEATRICE       MOSUNNY   81  68  64 SE17G26   29.82F
FALLS CITY     MOSUNNY   80  66  62 S18G26    29.87F
NEBRASKA CITY  MOSUNNY   80  68  67 S21       29.86F
PLATTSMOUTH    PTSUNNY   79  63  58 SE18G28   29.85F
$$

NEZ044-045-051>053-067-280000-
OMAHA AREA

CITY           SKY/WX    TMP DP  RH WIND       PRES   REMARKS
OMAHA EPPLEY   PTSUNNY   81  63  54 SE25G32   29.84F
BLAIR          MOSUNNY   79  63  58 S21G31    29.83F
FREMONT        MOSUNNY   79  64  59 SE17G30   29.82F
MILLARD        PTSUNNY   81  67  61 SE17G24   29.84F
OFFUTT AFB     MOSUNNY   79  64  59 SE23      29.83F
PLATTSMOUTH    PTSUNNY   79  63  58 SE18G28   29.85F
WAHOO          CLOUDY    81  63  53 S21G29    29.82F
$$



USA.gov is the U.S. government's official web portal to all federal, state and local government web resources and services.